Regional Weather Roundup
Issued by NWS

Home | Current Version | Previous Version | Graphics & Text | Print | Product List | Glossary On
Versions: 1 2 3 4 5 6 7 8 9 10 11 12 13 14 15 16 17 18 19 20 21 22 23 24 25 26 27 28 29 30 31 32 33 34 35 36 37 38 39 40 41 42 43 44 45 46 47 48 49 50
000
ASUS43 KMPX 230301
RWRMN
WEATHER ROUNDUP FOR MINNESOTA
NATIONAL WEATHER SERVICE TWIN CITIES/CHANHASSEN MN
1000 PM CDT MON SEP 22 2014


NOTE: "FAIR" INDICATES FEW OR NO CLOUDS BELOW 12,000 FEET WITH NO
SIGNIFICANT WEATHER AND/OR OBSTRUCTIONS TO VISIBILITY. N/A MEANS
CURRENT SKY AND/OR WEATHER CONDITIONS ARE NOT AVAILABLE.

MNZ060>063-068>070-230400-
   Twin Cities Metro

CITY           SKY/WX    TMP DP  RH WIND       PRES   REMARKS
TWIN CITIES    CLEAR     61  51  70 SE5       30.17R
ST PAUL        CLEAR     57  54  89 SE3       30.18R
CRYSTAL        CLEAR     55  51  86 CALM      30.15S
BLAINE         CLEAR     55  54  94 CALM      30.16F
LAKEVILLE      CLEAR     50  48  93 CALM      30.18S
EDEN PRAIRIE   CLEAR     59  51  75 SE6       30.16R
SOUTH ST PAUL  CLEAR     57  51  80 CALM      30.17S
LAKE ELMO      FAIR      52  50  93 CALM      30.19R
$$
MNZ001>005-007-008-013>017-022>024-027-028-230400-
   Northwest Minnesota

CITY           SKY/WX    TMP DP  RH WIND       PRES   REMARKS
BEMIDJI        CLEAR     52  48  86 CALM      30.11S
HALLOCK        CLEAR     57  50  77 SE9       30.02S
ROSEAU         CLEAR     55  50  82 S3        30.06S
WARROAD        CLEAR     57  54  88 S5        30.07R
THIEF RVR FALL CLEAR     55  46  71 SE8       30.07R
CROOKSTON      CLEAR     55  48  76 SE9       30.06R
FOSSTON        CLEAR     57  52  82 SE7       30.09S
DETROIT LAKES  CLEAR     59  52  77 S5        30.12S
MOORHEAD       CLEAR     61  52  72 S7        30.08R
PARK RAPIDS    CLEAR     55  49  80 S6        30.12S
$$
MNZ006-009>011-018-025>026-230400-
   North Central Minnesota

CITY           SKY/WX    TMP DP  RH WIND       PRES   REMARKS
BAUDETTE       CLEAR     55  51  86 CALM      30.08R
FLAG ISLAND    CLEAR     61  52  72 SW7       30.05R
INTL FALLS     CLEAR     48  46  93 SW3       30.08S
WASKISH        CLEAR     48  48 100 CALM      30.09S
BIG FORK       CLEAR     48  46  93 CALM      30.12S
LONGVILLE      CLEAR     48  46  93 CALM      30.13S
GRAND RAPIDS   CLEAR     52  46  82 S6        30.13S
CRANE LAKE     CLEAR     46  45  93 CALM      30.11R
ORR            CLEAR     54  48  82 CALM      30.09S
COOK           CLEAR     52  50  93 CALM      30.12R
WALKER         FAIR      52  50  92 S3        30.12S
$$
MNZ012-019>021-037-230400-
   Northeast Minnesota

CITY           SKY/WX    TMP DP  RH WIND       PRES   REMARKS
DULUTH         CLEAR     57  49  74 W7        30.14R
ELY            CLEAR     54  48  82 SW5       30.12R
HIBBING        CLEAR     48  45  89 CALM      30.13R
EVELETH        FOG       50  48  93 CALM      30.14S VSB 1
DULUTH HARBOR  CLEAR     61  54  77 SW8       30.13S
TWO HARBORS    CLEAR     57  48  72 W5        30.11R
SILVER BAY     CLEAR     54  52  94 CALM      30.10S
GRAND MARAIS     N/A     51  49  92 W3        30.07R
G MARAIS ARPRT CLEAR     54  46  76 W3        30.11S
$$
MNZ029>031-032-039>041-046>048-054>057-064-230400-
   West Central Minnesota

CITY           SKY/WX    TMP DP  RH WIND       PRES   REMARKS
FERGUS FALLS   CLEAR     59  46  63 SE7       30.10S
WHEATON        CLEAR     52  48  87 SE7       30.10S
MORRIS         CLEAR     54  48  82 SE7       30.10S
ALEXANDRIA     CLEAR     57  50  77 S7        30.14S
ELBOW LAKE     FAIR      58  49  74 SE7       30.11S
WADENA         CLEAR     54  46  76 CALM      30.12F
GLENWOOD       CLEAR     54  48  82 SE5       30.14S
APPLETON       CLEAR     59  48  67 S6        30.11R
BENSON         CLEAR     55  48  76 S6        30.12S
ORTONVILLE     CLEAR     55  46  71 S5        30.10S
MADISON        CLEAR     57  50  77 S8        30.11S
WILLMAR        FAIR      55  46  71 SE3       30.15S
$$
MNZ033>034-036-042>043-049>051-058-059-230400-
   Central Minnesota

CITY           SKY/WX    TMP DP  RH WIND       PRES   REMARKS
ST CLOUD       CLEAR     55  51  86 CALM      30.15S
SAUK CENTRE    FAIR      54  49  86 E3        30.14S
PAYNESVILLE    CLEAR     49  49  99 CALM      30.16R
AITKIN         CLEAR     54  48  82 CALM      30.13S
PINE RIVER     CLEAR     48  48 100 CALM      30.17R
BRAINERD       CLEAR     53  49  86 CALM      30.15R
STAPLES        CLEAR     52  48  87 CALM      30.13F
LONG PRAIRIE   FAIR      52  48  87 CALM      30.15R
LITTLE FALLS   CLEAR     52  48  87 CALM      30.15R
LITCHFIELD     CLEAR     55  54  94 CALM      30.16S
BUFFALO        CLEAR     55  49  82 CALM      30.17R
MAPLE LAKE     CLEAR     53  52  97 CALM      30.17S
$$
MNZ037-044-045-052-053-230400-
   East Central Minnesota

CITY           SKY/WX    TMP DP  RH WIND       PRES   REMARKS
PRINCETON      CLEAR     54  52  94 SE1       30.16S
MORA           CLEAR     50  48  93 CALM      30.17S
CAMBRIDGE      CLEAR     55  46  71 CALM      30.15R
RUSH CITY      MOCLDY    51  49  93 CALM      30.16S
MOOSE LAKE     CLEAR     50  48  93 CALM      30.13S
HINCKLEY       FAIR      50  50 100 CALM      30.16R
CLOQUET        CLEAR     57  48  72 SW5       30.14S
MCGREGOR       CLEAR     54  50  87 CALM      30.15R
$$
MNZ071>073-080-081-089-090-097-098-230400-
   Southwest Minnesota

CITY           SKY/WX    TMP DP  RH WIND       PRES   REMARKS
MONTEVIDEO     CLEAR     59  48  67 SW7       30.13S
GRANITE FALLS  CLEAR     51  46  83 S8        30.15S
CANBY          CLEAR     57  48  71 S5        30.13S
MARSHALL       CLEAR     55  46  71 S7        30.13S
REDWOOD FALLS  CLEAR     59  49  69 S8        30.14S
OLIVIA         CLEAR     55  46  71 S6        30.14S
PIPESTONE      PTCLDY    57  48  72 S8        30.15S
WINDOM         CLEAR     55  48  76 S3        30.17S
WORTHINGTON    PTCLDY    55  48  76 S7        30.19R
JACKSON        CLEAR     55  46  71 S5        30.19S
TRACY          CLEAR     59  49  69 CALM      30.15F
SLAYTON        PTCLDY    52  47  83 CALM      30.17F
$$
MNZ065>067-074>077-082>085-091>093-230400-
   South Central Minnesota

CITY           SKY/WX    TMP DP  RH WIND       PRES   REMARKS
MANKATO        CLEAR     59  45  58 S7        30.17S
NEW ULM        CLEAR     57  50  77 S6        30.16S
ST JAMES       CLEAR     55  48  76 S5        30.18S
FAIRMONT       CLEAR     54  45  71 S6        30.18S
GLENCOE        CLEAR     58  48  69 S3        30.16R
FARIBAULT      CLEAR     61  48  63 S3        30.19R
OWATONNA       CLEAR     57  48  72 S6        30.19S
WASECA         CLEAR     50  45  81 CALM      30.20S
ALBERT LEA     CLEAR     55  52  88 CALM      30.20S
$$
MNZ078>079-086>088-094>096-230400-
   Southeast Minnesota

CITY           SKY/WX    TMP DP  RH WIND       PRES   REMARKS
ROCHESTER      CLEAR     53  48  83 S5        30.22R
RED WING       CLEAR     52  50  93 CALM      30.18S
STANTON        CLEAR     52  49  89 CALM      30.18R
DODGE CENTER   CLEAR     52  46  82 S6        30.20S
WINONA         CLEAR     54  52  94 CALM      30.21R
AUSTIN         CLEAR     54  48  82 CALM      30.20S
PRESTON        CLEAR     55  52  89 SW3       30.21F
$$
ABBREVIATIONS USED IN REMARKS
   TC - TEMPERATURES IN CELSIUS
  WCI - WIND CHILL INDEX
   HX - HEAT INDEX
  VSB - VISIBILITY
$$


USA.gov is the U.S. government's official web portal to all federal, state and local government web resources and services.